This is the latest recevied weather packets stored in our database for station/object KC8RFE-1. If no packets are shown the sender has not sent any weather packets the latest 1 day(s).
| Time | Temp. | Humidity | Pressure | Rain* | Wind** | Luminosity | Snow |
|---|---|---|---|---|---|---|---|
| 1777993409 | 9.44° C | 6% | - | 0 mm | 1.79 m/s, 17° | - | - |
| 1777993109 | 9.44° C | 6% | - | 0 mm | 2.24 m/s, 36° | - | - |
| 1777992809 | 9.44° C | 6% | - | 0 mm | 1.79 m/s, 48° | - | - |
| 1777992509 | 10° C | 6% | - | 0 mm | 1.34 m/s, 52° | - | - |
| 1777992209 | 10° C | 6% | - | 0 mm | 0.45 m/s, 12° | - | - |
| 1777991909 | 10° C | 6% | - | 0 mm | 0.89 m/s, 303° | - | - |
| 1777991609 | 10° C | 6% | - | 0 mm | 1.79 m/s, 317° | - | - |
| 1777991309 | 10° C | 6% | - | 0 mm | 1.34 m/s, 339° | - | - |
| 1777991009 | 10° C | 6% | - | 0 mm | 2.68 m/s, 30° | - | - |
| 1777990709 | 10.56° C | 6% | - | 0 mm | 1.79 m/s, 323° | - | - |
| 1777990409 | 10.56° C | 6% | - | 0 mm | 1.34 m/s, 346° | - | - |
| 1777990109 | 10.56° C | 6% | - | 0 mm | 1.34 m/s, 350° | - | - |
| 1777989809 | 10.56° C | 6% | - | 0 mm | 1.34 m/s, 314° | - | - |
| 1777989509 | 10.56° C | 6% | - | 0 mm | 0.89 m/s, 266° | - | - |
| 1777989209 | 10.56° C | 6% | - | 0 mm | 1.34 m/s, 266° | - | - |
| 1777988909 | 11.11° C | 6% | - | 0 mm | 1.34 m/s, 260° | - | - |
| 1777988609 | 11.11° C | 6% | - | 0 mm | 1.34 m/s, 262° | - | - |
| 1777988309 | 11.11° C | 6% | - | 0 mm | 0.89 m/s, 293° | - | - |
| 1777988009 | 11.11° C | 6% | - | 0 mm | 0.89 m/s, 293° | - | - |
| 1777987709 | 11.11° C | 6% | - | 0 mm | 1.34 m/s, 271° | - | - |
| 1777987410 | 11.11° C | 6% | - | 0 mm | 1.34 m/s, 331° | - | - |
| 1777987110 | 11.11° C | 6% | - | 0 mm | 1.34 m/s, 266° | - | - |
| 1777986810 | 11.11° C | 6% | - | 0 mm | 1.34 m/s, 261° | - | - |
| 1777986510 | 11.11° C | 6% | - | 0 mm | 0.89 m/s, 277° | - | - |
| 1777986210 | 11.11° C | 6% | - | 0 mm | 0.89 m/s, 263° | - | - |
* Rain latest hour (hover to see other rain measurements)
** Current wind speed in m/s (hover to see current wind gust speed)